| time (UTC) | temp F | wind direction | speed MPH | gust MPH | rain 1hr in | rain 24hr in | rain mn in | humidity % | barometer mb |
| 20260902203045 | 79 | 208 | 1.0 | 5.0 | 0.00 | 0.09 | 0.09 | 92 | 1015.3 |
| 20260902201542 | 79 | 0 | 0.0 | 4.0 | 0.00 | 0.09 | 0.09 | 92 | 1015.5 |
| 20260902200039 | 79 | 187 | 0.0 | 7.0 | 0.00 | 0.09 | 0.09 | 92 | 1015.5 |
| 20260902194546 | 80 | 211 | 2.0 | 6.0 | 0.00 | 0.09 | 0.09 | 92 | 1015.9 |
| 20260902193047 | 79 | 0 | 0.0 | 3.0 | 0.00 | 0.09 | 0.09 | 93 | 1016.0 |
| 20260902191542 | 79 | 59 | 1.0 | 3.0 | 0.00 | 0.09 | 0.09 | 93 | 1015.8 |
| 20260902190047 | 79 | 34 | 2.0 | 4.0 | 0.07 | 0.09 | 0.09 | 94 | 1016.1 |
| 20260902184554 | 79 | 0 | 0.0 | 2.0 | 0.09 | 0.09 | 0.09 | 93 | 1016.1 |
| 20260902183044 | 78 | 292 | 0.0 | 2.0 | 0.09 | 0.09 | 0.09 | 92 | 1016.1 |
| 20260902181546 | 79 | 112 | 2.0 | 4.0 | 0.09 | 0.09 | 0.09 | 91 | 1016.3 |
| 20260902180101 | 81 | 156 | 4.0 | 10.0 | 0.00 | 0.00 | 0.00 | 87 | 1016.5 |
| 20260902174544 | 83 | 155 | 4.0 | 9.0 | 0.00 | 0.00 | 0.00 | 82 | 1016.2 |
| 20260902173047 | 86 | 173 | 5.0 | 15.0 | 0.00 | 0.00 | 0.00 | 79 | 1016.1 |
| 20260902171547 | 89 | 191 | 4.0 | 11.0 | 0.00 | 0.00 | 0.00 | 78 | 1016.1 |
| 20260902170044 | 89 | 120 | 4.0 | 8.0 | 0.00 | 0.00 | 0.00 | 78 | 1016.2 |
| 20260902164539 | 88 | 202 | 3.0 | 10.0 | 0.00 | 0.00 | 0.00 | 78 | 1016.3 |
| 20260902163056 | 89 | 209 | 3.0 | 7.0 | 0.00 | 0.00 | 0.00 | 77 | 1016.6 |
| 20260902161553 | 89 | 248 | 1.0 | 7.0 | 0.00 | 0.00 | 0.00 | 79 | 1016.6 |
| 20260902160043 | 88 | 192 | 4.0 | 8.0 | 0.00 | 0.00 | 0.00 | 80 | 1016.8 |
| 20260902154539 | 89 | 205 | 5.0 | 10.0 | 0.00 | 0.01 | 0.00 | 80 | 1016.8 |
| 20260902153045 | 88 | 192 | 2.0 | 11.0 | 0.00 | 0.01 | 0.00 | 83 | 1016.7 |
| 20260902151538 | 87 | 194 | 2.0 | 8.0 | 0.00 | 0.01 | 0.00 | 84 | 1016.6 |
| 20260902150039 | 87 | 173 | 3.0 | 10.0 | 0.00 | 0.01 | 0.00 | 84 | 1016.5 |
| 20260902144539 | 87 | 178 | 3.0 | 6.0 | 0.00 | 0.23 | 0.00 | 84 | 1016.5 |
| 20260902143042 | 87 | 191 | 4.0 | 8.0 | 0.00 | 0.23 | 0.00 | 86 | 1016.5 |
| 20260902141538 | 86 | 106 | 2.0 | 7.0 | 0.00 | 0.23 | 0.00 | 88 | 1016.3 |
| 20260902140045 | 85 | 105 | 1.0 | 6.0 | 0.00 | 0.23 | 0.00 | 90 | 1016.4 |
| 20260902134540 | 84 | 199 | 1.0 | 5.0 | 0.00 | 0.26 | 0.00 | 91 | 1016.2 |
| 20260902133044 | 83 | 196 | 1.0 | 3.0 | 0.00 | 0.26 | 0.00 | 93 | 1016.1 |
| 20260902131539 | 83 | 0 | 1.0 | 5.0 | 0.00 | 0.26 | 0.00 | 94 | 1015.9 |
| 20260902130039 | 82 | 159 | 1.0 | 3.0 | 0.00 | 0.26 | 0.00 | 96 | 1015.8 |
| 20260902124538 | 80 | 178 | 0.0 | 5.0 | 0.00 | 0.28 | 0.00 | 98 | 1015.7 |
| 20260902123052 | 79 | 0 | 0.0 | 1.0 | 0.00 | 0.28 | 0.00 | 98 | 1015.5 |
| 20260902121539 | 78 | 0 | 0.0 | 0.0 | 0.00 | 0.28 | 0.00 | 98 | 1015.4 |
| 20260902120038 | 78 | 0 | 0.0 | 1.0 | 0.00 | 0.28 | 0.00 | 98 | 1015.4 |
| 20260902114544 | 78 | 0 | 0.0 | 0.0 | 0.00 | 0.52 | 0.00 | 98 | 1015.5 |
| 20260902113047 | 78 | 0 | 0.0 | 1.0 | 0.00 | 0.52 | 0.00 | 97 | 1015.3 |
| 20260902111546 | 78 | 0 | 0.0 | 0.0 | 0.00 | 0.52 | 0.00 | 97 | 1015.3 |
| 20260902110044 | 78 | 0 | 0.0 | 2.0 | 0.00 | 0.52 | 0.00 | 97 | 1015.3 |
| 20260902104549 | 78 | 0 | 0.0 | 1.0 | 0.00 | 0.62 | 0.00 | 97 | 1015.0 |
| 20260902103043 | 78 | 0 | 0.0 | 2.0 | 0.00 | 0.62 | 0.00 | 97 | 1015.0 |
| 20260902101544 | 78 | 89 | 0.0 | 3.0 | 0.00 | 0.62 | 0.00 | 97 | 1015.1 |
| 20260902094545 | 78 | 0 | 0.0 | 0.0 | 0.00 | 0.67 | 0.00 | 97 | 1015.0 |
| 20260902093047 | 78 | 0 | 0.0 | 1.0 | 0.00 | 0.67 | 0.00 | 97 | 1014.9 |
| 20260902091539 | 78 | 0 | 0.0 | 0.0 | 0.00 | 0.67 | 0.00 | 96 | 1015.0 |
| 20260902090041 | 79 | 0 | 0.0 | 0.0 | 0.00 | 0.67 | 0.00 | 96 | 1015.0 |
| 20260902084544 | 79 | 0 | 0.0 | 1.0 | 0.00 | 0.67 | 0.00 | 96 | 1014.9 |
| 20260902083043 | 79 | 0 | 0.0 | 4.0 | 0.00 | 0.67 | 0.00 | 96 | 1014.8 |
| 20260902081540 | 79 | 144 | 0.0 | 4.0 | 0.00 | 0.67 | 0.00 | 96 | 1014.7 |
| 20260902080045 | 79 | 188 | 1.0 | 3.0 | 0.00 | 0.67 | 0.00 | 97 | 1014.7 |
| 20260902074543 | 79 | 207 | 1.0 | 4.0 | 0.00 | 0.67 | 0.00 | 97 | 1015.0 |
| 20260902073049 | 79 | 0 | 0.0 | 2.0 | 0.00 | 0.67 | 0.00 | 97 | 1015.0 |
| 20260902071541 | 79 | 0 | 0.0 | 3.0 | 0.00 | 0.67 | 0.00 | 97 | 1015.2 |
| 20260902070047 | 79 | 0 | 0.0 | 1.0 | 0.00 | 0.67 | 0.00 | 97 | 1015.2 |
| 20260902064549 | 79 | 0 | 0.0 | 2.0 | 0.00 | 0.68 | 0.00 | 97 | 1015.1 |
| 20260902063049 | 79 | 0 | 0.0 | 2.0 | 0.00 | 0.68 | 0.00 | 96 | 1015.2 |
| 20260902061544 | 79 | 0 | 0.0 | 0.0 | 0.00 | 0.68 | 0.00 | 96 | 1015.1 |
| 20260902060049 | 79 | 0 | 0.0 | 0.0 | 0.00 | 0.68 | 0.00 | 96 | 1015.1 |
| 20260902054547 | 79 | 0 | 0.0 | 2.0 | 0.00 | 0.69 | 0.00 | 96 | 1015.3 |
| 20260902053047 | 79 | 111 | 0.0 | 2.0 | 0.00 | 0.69 | 0.00 | 95 | 1015.3 |
| 20260902051541 | 79 | 0 | 0.0 | 2.0 | 0.00 | 0.69 | 0.00 | 95 | 1015.2 |
| 20260902050055 | 80 | 0 | 0.0 | 3.0 | 0.00 | 0.69 | 0.00 | 95 | 1015.2 |
| 20260902044546 | 80 | 0 | 0.0 | 4.0 | 0.00 | 0.69 | 0.69 | 95 | 1015.1 |
| 20260902043045 | 80 | 161 | 0.0 | 4.0 | 0.00 | 0.69 | 0.69 | 95 | 1015.3 |
| 20260902041542 | 80 | 0 | 0.0 | 3.0 | 0.00 | 0.69 | 0.69 | 95 | 1015.3 |
| 20260902040039 | 80 | 168 | 0.0 | 4.0 | 0.00 | 0.69 | 0.69 | 95 | 1015.4 |
| 20260902034540 | 80 | 74 | 0.0 | 4.0 | 0.00 | 0.69 | 0.69 | 94 | 1015.4 |
| 20260902033047 | 80 | 151 | 0.0 | 4.0 | 0.00 | 0.69 | 0.69 | 94 | 1015.3 |
| 20260902031545 | 81 | 134 | 1.0 | 6.0 | 0.00 | 0.69 | 0.69 | 94 | 1015.1 |
| 20260902030039 | 80 | 103 | 1.0 | 8.0 | 0.00 | 0.69 | 0.69 | 94 | 1015.0 |
| 20260902024539 | 80 | 0 | 1.0 | 5.0 | 0.00 | 0.69 | 0.69 | 94 | 1014.9 |
| 20260902023051 | 80 | 0 | 1.0 | 4.0 | 0.00 | 0.69 | 0.69 | 94 | 1014.7 |
| 20260902021544 | 81 | 0 | 1.0 | 6.0 | 0.00 | 0.69 | 0.69 | 94 | 1014.6 |
| 20260902020040 | 81 | 174 | 0.0 | 3.0 | 0.00 | 0.69 | 0.69 | 93 | 1014.5 |
| 20260902014549 | 81 | 82 | 1.0 | 5.0 | 0.00 | 0.69 | 0.69 | 93 | 1014.3 |
| 20260902013047 | 81 | 0 | 1.0 | 6.0 | 0.00 | 0.69 | 0.69 | 93 | 1014.1 |
| 20260902011549 | 81 | 208 | 1.0 | 6.0 | 0.00 | 0.69 | 0.69 | 93 | 1014.1 |
| 20260902010040 | 81 | 0 | 0.0 | 4.0 | 0.00 | 0.69 | 0.69 | 92 | 1014.2 |
| 20260902004540 | 82 | 67 | 0.0 | 4.0 | 0.00 | 0.69 | 0.69 | 91 | 1014.4 |
| 20260902003047 | 82 | 153 | 0.0 | 5.0 | 0.00 | 0.69 | 0.69 | 91 | 1014.4 |
| 20260902001545 | 82 | 119 | 1.0 | 7.0 | 0.00 | 0.69 | 0.69 | 90 | 1014.4 |
| 20260902000048 | 83 | 185 | 0.0 | 4.0 | 0.00 | 0.69 | 0.69 | 90 | 1014.3 |
| 20260901234539 | 83 | 145 | 2.0 | 9.0 | 0.00 | 0.69 | 0.69 | 89 | 1014.2 |
| 20260901233046 | 83 | 0 | 2.0 | 10.0 | 0.00 | 0.69 | 0.69 | 88 | 1014.0 |
| 20260901231545 | 84 | 173 | 3.0 | 10.0 | 0.00 | 0.69 | 0.69 | 89 | 1014.1 |
| 20260901230044 | 84 | 125 | 3.0 | 8.0 | 0.00 | 0.69 | 0.69 | 89 | 1014.0 |
| 20260901224551 | 84 | 97 | 2.0 | 11.0 | 0.00 | 0.70 | 0.69 | 89 | 1013.8 |
| 20260901223038 | 84 | 151 | 3.0 | 11.0 | 0.00 | 0.70 | 0.69 | 89 | 1013.8 |
| 20260901221556 | 84 | 167 | 2.0 | 12.0 | 0.00 | 0.70 | 0.69 | 89 | 1013.7 |
| 20260901220045 | 84 | 137 | 2.0 | 10.0 | 0.00 | 0.70 | 0.69 | 88 | 1013.7 |
| 20260901214554 | 84 | 213 | 4.0 | 10.0 | 0.00 | 0.70 | 0.69 | 87 | 1013.8 |
| 20260901213035 | 84 | 181 | 3.0 | 10.0 | 0.00 | 0.70 | 0.69 | 87 | 1013.8 |
| 20260901211539 | 84 | 86 | 3.0 | 12.0 | 0.00 | 0.70 | 0.69 | 87 | 1014.0 |
| 20260901210042 | 84 | 169 | 3.0 | 13.0 | 0.00 | 0.70 | 0.69 | 88 | 1014.1 |
| 20260901204538 | 84 | 90 | 3.0 | 10.0 | 0.00 | 0.70 | 0.69 | 89 | 1014.4 |